Find ZQ-2E R/B

NORAD ID: 69537 Int'l Des: 2026-128C Owner: LANDSP Country: CN operational

現在のビュー

3D地球を読み込み中...

About ZQ-2E R/B

ZQ-2E R/B (NORAD 69537) is a satellite launched Jun 9, 2026 by LANDSP of CN. with a mass of 5000.00 kg.

次回通過

Passes for default location (London). Set your location on the main map for personalized predictions.

高度履歴

Loading altitude history...

軌道要素

1 69537U 26128C 26164.80738031 .00042028 00000-0 41664-3 0 9998
2 69537 54.5308 319.8506 0065962 334.9361 24.8473 15.62647846 698
Epoch: Jun 13, 2026 • Age: 6 hours

現在のステータス

高度 354.8 km
速度 7.72 km/s
衛星直下点 -41.19°S, 1.36°W
打ち上げ日 Jun 9, 2026
運用期間 5 days
タイプ rocket

技術仕様

分類 Launch Vehicle Stage
質量 5000.00 kg
乾燥質量 5000.00 kg
総質量 5000.00 kg
長さ 12.00 m
直径 3.40 m
スパン 12.00 m
形状 Cyl
製造者 LSPHZ
バスタイプ ZQ-2 St 2
フェーズステータス Exploded
所有者/国 LANDSP/CN

Most Searched